Date String (YYYY-MM-DD hh:mm:ss) UTC,Instrument flags,Ambient pressure (hPa),Sample flow (lpm),Bypass flow (lpm),Sample temperature (°C),Ambient temperature (°C),ASC tube jacket temperature (°C),LED temperature (°C),Box temperature (°C),Sample RH (%),Span deviation,Mass concentration (μg/m³),Mass concentration (μg/m³),Mass concentration (μg/m³)
DateTimeUTC,F1_M11,P_M11,Q1_M11,Q2_M11,T1_M11,T2_M11,T3_M11,T4_M11,T5_M11,U1_M11,ZSPAN_M11,X2_M11,X0_M11,X1_M11
2021-11-12 02:00:00,,0824.9,5.00,0.00,25.7,24.8,00.0,34.8,27.5,13.2,0000.0,0000.58,0006.45,0000.30
2021-11-12 02:01:00,,0824.9,5.01,0.00,25.7,24.8,00.0,34.8,27.5,13.2,0000.0,0000.57,0006.37,0000.29
2021-11-12 02:02:00,,0824.9,5.00,0.00,25.7,24.8,00.0,34.8,27.5,13.2,0000.0,0000.54,0006.42,0000.28
2021-11-12 02:03:00,,0824.9,5.00,0.00,25.7,24.8,00.0,34.8,27.5,13.3,0000.0,0000.58,0006.55,0000.29
2021-11-12 02:04:00,,0824.9,4.99,0.00,25.7,24.8,00.0,34.8,27.5,13.2,0000.0,0000.63,0006.68,0000.30
2021-11-12 02:05:00,,0824.9,4.99,0.00,25.7,24.8,00.0,34.8,27.5,13.2,0000.0,0000.67,0006.97,0000.30
2021-11-12 02:06:00,,0825.0,4.99,0.00,25.7,24.8,00.0,34.8,27.5,13.3,0000.0,0000.73,0007.14,0000.31
2021-11-12 02:07:00,,0825.0,5.00,0.00,25.7,24.8,00.0,34.8,27.5,13.4,0000.0,0000.74,0006.68,0000.32
2021-11-12 02:08:00,,0824.9,5.01,0.00,25.7,24.9,00.0,34.8,27.5,13.4,0000.0,0000.76,0005.19,0000.32
2021-11-12 02:09:00,,0824.9,5.01,0.00,25.7,24.9,00.0,34.8,27.5,13.4,0000.0,0000.75,0004.92,0000.33
2021-11-12 02:10:00,,0824.7,5.00,0.00,25.7,24.9,00.0,34.8,27.5,13.4,0000.0,0000.77,0003.69,0000.34
2021-11-12 02:11:00,,0824.8,4.99,0.00,25.7,24.9,00.0,34.8,27.5,13.4,0000.0,0000.84,0004.65,0000.35
2021-11-12 02:12:00,,0824.9,5.01,0.00,25.7,24.8,00.0,34.8,27.5,13.4,0000.0,0000.87,0005.35,0000.36
2021-11-12 02:13:00,,0824.9,5.01,0.00,25.7,24.8,00.0,34.8,27.5,13.5,0000.0,0000.93,0005.37,0000.38
2021-11-12 02:14:00,,0824.9,4.99,0.00,25.7,24.8,00.0,34.8,27.4,13.6,0000.0,0000.93,0005.43,0000.40
2021-11-12 02:15:00,,0824.9,5.00,0.00,25.7,24.7,00.0,34.8,27.4,13.6,0000.0,0001.00,0005.88,0000.42
2021-11-12 02:16:00,,0825.0,5.01,0.00,25.7,24.7,00.0,34.8,27.4,13.6,0000.0,0001.01,0004.42,0000.44
2021-11-12 02:17:00,,0825.1,5.00,0.00,25.7,24.8,00.0,34.8,27.5,13.6,0000.0,0000.99,0004.14,0000.46
2021-11-12 02:18:00,,0825.1,4.99,0.00,25.7,24.8,00.0,34.8,27.5,13.6,0000.0,0001.04,0004.27,0000.48
2021-11-12 02:19:00,,0825.1,5.01,0.00,25.7,24.8,00.0,34.8,27.4,13.6,0000.0,0001.09,0004.55,0000.50
2021-11-12 02:20:00,,0825.1,5.02,0.00,25.7,24.8,00.0,34.8,27.4,13.7,0000.0,0001.14,0005.78,0000.51
2021-11-12 02:21:00,,0825.1,4.99,0.00,25.7,24.8,00.0,34.8,27.5,13.7,0000.0,0001.17,0006.02,0000.51
2021-11-12 02:22:00,,0825.1,5.00,0.00,25.7,24.8,00.0,34.8,27.5,13.6,0000.0,0001.16,0005.46,0000.52
2021-11-12 02:23:00,,0825.1,5.00,0.00,25.7,24.8,00.0,34.8,27.5,13.6,0000.0,0001.19,0004.75,0000.53
2021-11-12 02:24:00,,0825.2,5.00,0.00,25.7,24.8,00.0,34.8,27.5,13.6,0000.0,0001.18,0004.66,0000.53
2021-11-12 02:25:00,,0825.2,4.99,0.00,25.7,24.8,00.0,34.8,27.5,13.6,0000.0,0001.23,0004.68,0000.53
2021-11-12 02:26:00,,0825.3,5.00,0.00,25.7,24.8,00.0,34.8,27.5,13.6,0000.0,0001.20,0004.86,0000.53
2021-11-12 02:27:00,,0825.3,5.01,0.00,25.7,24.8,00.0,34.8,27.5,13.5,0000.0,0001.18,0005.55,0000.54
2021-11-12 02:28:00,,0825.3,5.00,0.00,25.7,24.9,00.0,34.8,27.5,13.5,0000.0,0001.17,0005.56,0000.53
2021-11-12 02:29:00,,0825.4,5.00,0.00,25.7,24.9,00.0,34.8,27.6,13.5,0000.0,0001.11,0005.44,0000.51
2021-11-12 02:30:00,,0825.4,4.99,0.00,25.7,24.9,00.0,34.8,27.6,13.5,0000.0,0001.06,0005.28,0000.48
2021-11-12 02:31:00,,0825.4,5.00,0.00,25.7,24.9,00.0,34.8,27.6,13.3,0000.0,0001.01,0004.33,0000.47
2021-11-12 02:32:00,,0825.3,5.01,0.00,25.7,24.9,00.0,34.8,27.6,13.3,0000.0,0000.94,0003.79,0000.47
2021-11-12 02:33:00,,0825.2,4.99,0.00,25.7,24.9,00.0,34.8,27.6,13.3,0000.0,0000.87,0003.48,0000.46
2021-11-12 02:34:00,,0825.3,4.99,0.00,25.7,24.9,00.0,34.8,27.5,13.3,0000.0,0000.82,0003.13,0000.44
2021-11-12 02:35:00,,0825.4,4.99,0.00,25.7,24.9,00.0,34.8,27.6,13.4,0000.0,0000.77,0003.02,0000.42
2021-11-12 02:36:00,,0825.4,5.00,0.00,25.7,24.9,00.0,34.8,27.5,13.3,0000.0,0000.69,0002.92,0000.41
2021-11-12 02:37:00,,0825.4,5.00,0.00,25.7,24.9,00.0,34.8,27.5,13.3,0000.0,0000.65,0002.19,0000.39
2021-11-12 02:38:00,,0825.4,4.99,0.00,25.7,24.9,00.0,34.7,27.5,13.3,0000.0,0000.63,0001.48,0000.38
2021-11-12 02:39:00,,0825.3,5.01,0.00,25.7,24.9,00.0,34.8,27.6,13.3,0000.0,0000.60,0001.41,0000.37
2021-11-12 02:40:00,,0825.3,5.00,0.00,25.7,24.9,00.0,34.8,27.6,13.4,0000.0,0000.60,0001.42,0000.35
2021-11-12 02:41:00,,0825.3,5.00,0.00,25.7,24.9,00.0,34.8,27.6,13.4,0000.0,0000.60,0001.86,0000.35
2021-11-12 02:42:00,,0825.2,5.01,0.00,25.7,24.9,00.0,34.8,27.6,13.4,0000.0,0000.62,0002.15,0000.35
2021-11-12 02:43:00,,0825.3,4.99,0.00,25.7,24.9,00.0,34.8,27.5,13.5,0000.0,0000.61,0002.38,0000.33
2021-11-12 02:44:00,,0825.3,4.99,0.00,25.7,24.9,00.0,34.7,27.5,13.5,0000.0,0000.62,0002.40,0000.33
2021-11-12 02:45:00,,0825.4,5.00,0.00,25.7,24.9,00.0,34.7,27.5,13.4,0000.0,0000.59,0002.44,0000.33
2021-11-12 02:46:00,,0825.3,5.00,0.00,25.7,24.9,00.0,34.7,27.5,13.4,0000.0,0000.59,0002.58,0000.33
2021-11-12 02:47:00,,0825.4,5.00,0.00,25.7,24.9,00.0,34.7,27.5,13.4,0000.0,0000.58,0002.67,0000.33
2021-11-12 02:48:00,,0825.3,5.00,0.00,25.7,24.9,00.0,34.7,27.5,13.4,0000.0,0000.59,0002.81,0000.33
2021-11-12 02:49:00,,0825.4,4.99,0.00,25.7,24.9,00.0,34.7,27.5,13.4,0000.0,0000.61,0003.73,0000.33
2021-11-12 02:50:00,,0825.3,5.00,0.00,25.7,24.9,00.0,34.7,27.5,13.4,0000.0,0000.67,0003.97,0000.35
2021-11-12 02:51:00,,0825.4,5.01,0.00,25.7,24.9,00.0,34.7,27.4,13.4,0000.0,0000.70,0004.36,0000.37
2021-11-12 02:52:00,,0825.4,5.00,0.00,25.7,24.9,00.0,34.7,27.4,13.4,0000.0,0000.70,0004.00,0000.38
2021-11-12 02:53:00,,0825.3,5.00,0.00,25.7,24.9,00.0,34.7,27.5,13.4,0000.0,0000.74,0004.68,0000.38
2021-11-12 02:54:00,,0825.3,5.01,0.00,25.7,24.9,00.0,34.7,27.5,13.4,0000.0,0000.75,0004.55,0000.39
2021-11-12 02:55:00,,0825.3,5.00,0.00,25.7,24.9,00.0,34.7,27.5,13.4,0000.0,0000.77,0004.59,0000.39
2021-11-12 02:56:00,,0825.3,5.00,0.00,25.7,24.9,00.0,34.7,27.5,13.4,0000.0,0000.82,0004.64,0000.40
2021-11-12 02:57:00,,0825.4,5.00,0.00,25.7,24.9,00.0,34.7,27.5,13.4,0000.0,0000.87,0004.64,0000.40
2021-11-12 02:58:00,,0825.3,5.01,0.00,25.7,24.9,00.0,34.7,27.5,13.4,0000.0,0000.90,0004.71,0000.40
2021-11-12 02:59:00,,0825.4,5.00,0.00,25.7,24.9,00.0,34.7,27.5,13.3,0000.0,0000.89,0004.64,0000.41
